Regional Weather Roundup
Issued by NWS

Home | Current Version | Previous Version | Graphics & Text | Print | Product List | Glossary On
Versions: 1 2 3 4 5 6 7 8 9 10 11 12 13 14 15 16 17 18 19 20 21 22 23 24 25 26 27 28 29 30 31 32 33 34 35 36 37 38 39 40 41 42 43 44 45 46 47 48 49 50
056
ASUS43 KFSD 041610
RWRSD

WEATHER ROUNDUP FOR SOUTH DAKOTA
NATIONAL WEATHER SERVICE SIOUX FALLS SD
1000 AM CST SUN DEC 04 2016

NOTE: "FAIR" INDICATES FEW OR NO CLOUDS BELOW 12,000 FEET WITH NO
SIGNIFICANT WEATHER AND/OR OBSTRUCTIONS TO VISIBILITY.


SDZ001>005-009-010-012>017-041700-
NORTHWEST AND NORTH CENTRAL SOUTH DAKOTA

CITY           SKY/WX    TMP DP  RH WIND       PRES   REMARKS
BUFFALO          N/A     30  22  72 W6        29.74F WCI  24
FAITH            N/A     30  23  75 W17       29.83S WCI  18
MOBRIDGE       SUNNY     31  21  66 W12       29.79S WCI  22
$$

SDZ012>016-024>037-041>051-057-063-072>074-041700-
SOUTHWEST AND SOUTH CENTRAL SOUTH DAKOTA

CITY           SKY/WX    TMP DP  RH WIND       PRES   REMARKS
RAPID CTY ARPT SUNNY     37  21  52 W13       29.88S
PIERRE         SUNNY     30  22  72 W8        29.86S WCI  22
CUSTER         SUNNY     25  15  66 W8        29.84F WCI  16
ELLSWORTH AFB  SUNNY     36  22  56 W14       29.87S
PHILIP         SUNNY     31  23  72 W5        29.89S WCI  26
PINE RIDGE     SUNNY     31  16  54 W9        29.94S WCI  23
SPEARFISH      FAIR      34  18  51 SW15      29.85S WCI  24
WINNER         FAIR      41  25  53 W13       29.90R
$$

SDZ004>011-016>023-039-040-041700-
NORTHEAST SOUTH DAKOTA

CITY           SKY/WX    TMP DP  RH WIND       PRES   REMARKS
ABERDEEN       MOSUNNY   32  28  85 W9        29.80S WCI  24
WATERTOWN      MOSUNNY   31  27  85 W16       29.79S WCI  20
BROOKINGS      SUNNY     34  28  79 W13       29.83S WCI  25
SISSETON         N/A     36  30  79 W15G22    29.74F
$$

SDZ017-020-022-023-036>040-048>070-041700-
SOUTHEAST SOUTH DAKOTA

CITY           SKY/WX    TMP DP  RH WIND       PRES   REMARKS
SIOUX FALLS    MOSUNNY   36  30  79 W7        29.87S
HURON          MOSUNNY   33  29  85 W8        29.85F WCI  26
CHAMBERLAIN    SUNNY     36  29  76 W9        29.89R
MITCHELL       SUNNY     34  29  82 W9        29.89S WCI  27
YANKTON        SUNNY     37  28  70 W7        29.91R
$$

ABBREVIATIONS USED IN REMARKS
   TC - TEMPERATURE IN CELSIUS
  WCI - WIND CHILL INDEX
   HX - HEAT INDEX
  VSB - VISIBILITY





USA.gov is the U.S. government's official web portal to all federal, state and local government web resources and services.